Location: Adannes
(46.5312°N, 7.2457°E)
Time: 19:12:38
(UTC+00:00)

Daily predictions for brighter satellites

Satellite Brightness Start Highest point End
(mag) Time Altitude Azimuth Time Altitude Azimuth Time Altitude Azimuth
Cosmos 1939 Rocket 3.0 16:54:54 10° SSE 16:58:50 84° WSW 17:02:52 10° NNW
NOAA 6 4.3 16:56:16 10° S 17:01:26 78° WSW 17:06:40 10° NNW
H-2A R/B 2.3 16:59:24 10° SE 17:04:36 53° ENE 17:09:55 10° N
Cosmos 1703 3.4 17:01:48 10° N 17:05:40 52° ENE 17:09:28 10° SSE
Cosmos 2098 4.2 17:02:57 10° S 17:05:56 87° E 17:09:24 10° N
Landsat 5 4.4 17:02:39 10° NE 17:06:33 30° E 17:10:30 10° SSE
Cosmos 389 Rocket 2.6 17:05:51 10° SSW 17:09:14 74° WNW 17:12:39 10° N
Cosmos 2360 Rocket 3.9 17:07:37 10° ESE 17:09:36 12° E 17:11:35 10° ENE
Okean 1 Rocket 3.7 17:05:55 10° SSW 17:10:12 61° W 17:14:32 10° N
Cosmos 2123 Rocket 4.4 17:04:21 10° N 17:10:21 42° ENE 17:16:17 10° SE
Tiangong 2.7 17:07:43 10° SW 17:10:25 25° SSE 17:13:08 10° ESE
USA 215 3.6 17:04:25 10° NE 17:10:55 69° NNW 17:17:25 10° WSW
Okean 1-7 Rocket 4.1 17:11:00 10° N 17:15:04 35° ENE 17:19:10 10° SE
Cosmos 405 Rocket 2.8 17:12:08 10° N 17:16:05 60° ENE 17:20:03 10° SSE
Okean-O 4.3 17:15:22 10° E 17:17:49 15° ENE 17:20:17 10° NNE
deb Chang Zheng 4 3.4 17:14:56 10° SSE 17:19:07 75° ENE 17:23:20 10° N
CZ-4B R/B 3.3 17:14:15 10° SSE 17:19:51 69° ENE 17:25:30 10° N
COSMO-SKYMED 1 2.9 17:16:06 10° NNE 17:20:16 44° E 17:24:25 10° S
PSLV R/B 4.4 17:17:40 10° S 17:21:40 64° W 17:25:37 10° NNW
SL-19 R/B 4.3 17:18:46 10° NNE 17:24:29 70° ESE 17:30:01 10° S
ARGOS 3.4 17:19:23 10° SE 17:24:32 49° ENE 17:29:46 10° N
Cosmos 1125 Rocket 4.3 17:19:24 10° SW 17:24:33 54° WNW 17:29:42 10° NNE
Lacrosse 4 Rocket 2.5 17:20:51 10° NNW 17:24:34 27° NE 17:27:47 13° ESE
Cosmos 1269 Rocket 4.0 17:20:31 10° NNW 17:25:51 75° ENE 17:31:08 10° SSE
Cosmos 1892 Rocket 3.6 17:23:46 10° N 17:28:15 87° W 17:32:40 10° S
Cosmos 2263 Rocket 2.2 17:23:55 10° NNW 17:29:31 88° WSW 17:35:05 10° SSE
Cosmos 1980 Rocket 2.7 17:27:05 10° SW 17:32:42 62° WNW 17:38:22 10° NNE
ATLAS 3B R/B 3.8 17:26:57 10° WSW 17:33:09 41° NW 17:39:40 10° NNE
Cosmos 2227 4.2 17:28:00 10° NNW 17:33:49 80° ENE 17:39:34 10° SSE
NOSS 3-1 (A) 4.2 17:30:11 10° SSE 17:34:19 24° ESE 17:37:47 14° ENE
MOS 1-B Rocket 4.1 17:29:25 10° NNE 17:35:58 56° E 17:41:42 10° S
Cosmos 1328 3.7 17:35:03 10° N 17:39:06 70° E 17:43:07 10° SSE
CZ-2D R/B 4.2 17:39:43 10° S 17:43:28 52° W 17:47:16 10° NNW
Cosmos 2251 Rocket 4.2 17:39:13 10° N 17:43:58 33° ENE 17:47:22 17° ESE
CZ-2C R/B 2.7 17:38:41 10° NNE 17:44:17 66° ESE 17:49:44 10° S
SKYMED 3 4.5 17:39:57 10° NNE 17:44:19 79° ESE 17:48:39 10° S
USA 267 4.0 17:39:06 10° SSE 17:45:28 54° SW 17:51:54 10° WNW
Cosmos 1953 3.3 17:42:44 10° SSW 17:46:41 50° WNW 17:50:40 10° N
Cosmos 1892 3.7 17:44:49 10° NNE 17:47:56 24° ENE 17:48:05 24° ENE
Cosmos 304 Rocket 4.2 17:45:09 10° S 17:49:34 38° ESE 17:54:01 10° NE
HJ-1C 4.0 17:49:57 28° E 17:50:39 31° ENE 17:53:35 10° N
Cosmos 1626 Rocket 3.5 17:48:26 10° N 17:52:43 58° ENE 17:56:58 10° SSE
CENTAUR R/B 4.5 17:47:55 10° NW 17:53:20 22° N 17:59:02 11° NE
NOSS 2-3 (D) 3.7 17:50:37 10° SSW 17:54:28 47° ESE 17:57:06 21° ENE
Meteor 1-4 Rocket 2.8 17:54:17 10° SSE 17:57:33 39° E 17:59:19 22° NE
Cosmos 1605 Rocket 4.1 17:52:44 10° SSE 17:58:49 56° E 18:05:02 10° NNE
NOSS 3-1 (C) 3.2 17:54:13 10° SSW 17:59:22 64° ESE 18:04:56 12° NE
IRS-1C Rocket 4.3 17:56:44 10° SE 18:01:45 47° ENE 18:06:47 10° N
Cosmos 1844 Rocket 3.1 17:57:33 10° NNW 18:02:50 41° NE 18:05:24 26° ESE
Cosmos 332 Rocket 3.9 18:00:14 10° S 18:05:00 54° ESE 18:09:46 10° NNE
CZ-2C R/B 3.5 18:04:18 10° SSW 18:05:14 11° SSW 18:06:10 10° S
Cosmos 1535 Rocket 4.5 17:59:00 10° S 18:05:16 84° E 18:11:40 10° N
CZ-4 R/B 1.3 18:02:49 10° SSE 18:06:47 67° ENE 18:10:52 10° N
NOSS 2-3 (C) 3.4 18:03:04 10° SSW 18:07:04 65° SE 18:09:38 24° NE
SKYMED 2 4.2 18:04:04 10° N 18:08:21 59° WNW 18:12:37 10° SSW
H-2A R/B 2.4 18:04:22 10° SSE 18:08:41 87° ENE 18:12:52 10° NNW
X-37B 1.1 18:06:34 10° W 18:09:40 52° SSW 18:10:16 43° SSE
BREEZE-M DEB (TANK) 2.7 18:08:21 10° WNW 18:14:16 76° NNE 18:14:54 53° E
YAOGAN 1 2.4 18:10:36 10° SSE 18:14:55 82° ENE 18:19:17 10° NNW
CZ-4C R/B 3.6 18:13:50 10° N 18:17:09 53° WNW 18:20:21 10° SSW
Cosmos 220 Rocket 4.1 18:13:53 10° S 18:18:09 50° ESE 18:19:15 40° ENE
H-2A R/B 2.0 18:15:05 10° NNE 18:19:08 51° ESE 18:23:12 10° S
SWARM C 4.3 18:16:16 10° S 18:19:33 84° E 18:22:53 10° N
SWARM A 4.0 18:16:28 10° S 18:19:45 84° E 18:23:04 10° N
Cosmos 2278 Rocket 4.0 18:18:01 10° N 18:21:01 14° NE 18:21:01 14° NE
Spot 2 4.4 18:17:37 10° S 18:21:43 64° WSW 18:26:02 10° NNW
Meteor 2-10 Rocket 3.5 18:18:34 10° S 18:24:08 74° E 18:29:31 10° NNE
Cosmos 1408 3.4 18:23:41 10° N 18:26:02 36° NNE 18:26:02 36° NNE
IRAS Rocket 4.2 18:21:50 10° NNE 18:27:26 88° WNW 18:32:56 10° SSW
SL-16 R/B 2.3 18:22:16 10° SSW 18:27:56 79° WNW 18:33:39 10° NNE
NOSS 8 (H) 4.4 18:25:46 10° SW 18:28:45 67° WSW 18:28:45 67° WSW
Cosmos 839 Rocket 4.3 18:22:16 10° NW 18:29:58 81° WSW 18:34:53 18° SSE
Cosmos 614 Rocket 3.8 18:25:57 10° NNW 18:31:03 80° ENE 18:33:26 32° SSE
Cosmos 1300 4.1 18:28:08 10° SW 18:31:42 38° WNW 18:35:18 10° N
Iridium 4 Rocket 4.5 18:27:22 10° NNW 18:31:43 44° W 18:36:26 10° SSW
Cosmos 371 Rocket 4.1 18:27:31 10° SW 18:32:15 52° WNW 18:37:03 10° NNE
ATLAS 5 CENTAUR R/B 3.4 18:30:07 10° W 18:33:29 24° NNW 18:36:43 12° NNE
SL-8 R/B 3.7 18:29:23 10° W 18:34:11 74° N 18:35:12 54° ENE
Okean O Rocket 3.6 18:30:31 10° SSW 18:34:16 28° W 18:38:04 10° NW
Cosmos 1825 4.4 18:35:56 10° N 18:36:44 15° N 18:36:44 15° N
Cosmos 2322 Rocket 2.2 18:35:58 10° SSW 18:41:34 80° WNW 18:47:06 11° NNE
H-2A R/B 4.4 18:39:59 10° SW 18:44:19 24° W 18:48:43 10° NW
DMSP B5D2-2 4.0 18:39:49 10° NNE 18:45:06 86° WNW 18:50:20 10° SSW
Tiangong 3.2 18:43:58 10° WSW 18:45:38 23° SW 18:45:38 23° SW
Cosmos 1844 3.6 18:42:55 10° NNW 18:48:45 74° ENE 18:49:50 58° SE
Cosmos 1932 4.3 18:43:14 10° NW 18:49:30 78° NE 18:51:02 53° SE
Cosmos 2360 Rocket 2.0 18:46:58 10° SSW 18:52:36 79° ESE 18:54:25 45° NE
Cosmos 2333 Rocket 4.2 18:47:22 10° S 18:47:58 13° S 18:47:58 13° S
USA 215 4.2 18:49:59 23° NE 18:53:22 38° N 18:59:19 10° WNW
Okean-O 2.8 18:52:50 53° SSW 18:53:45 72° WSW 18:58:12 10° NNW
NOSS 2-3 (E) 4.4 18:53:33 10° WSW 18:57:30 48° NW 18:58:36 39° N
USA 229 DEB 3.5 18:55:36 10° SW 19:01:59 89° NW 19:04:46 39° NE
USA 229 3.5 18:55:43 10° SW 19:02:06 90° NW 19:04:48 39° NE
Lacrosse 4 Rocket 2.6 18:59:17 10° NW 19:03:20 40° WSW 19:04:08 36° SW
Cosmos 44 3.4 19:01:35 10° SW 19:06:59 86° WNW 19:06:59 86° WNW
Meteor 2-11 Rocket 4.3 19:03:19 10° S 19:09:28 88° W 19:15:40 10° N
Cosmos 2344 4.4 19:02:27 10° NW 19:11:42 76° SW 19:20:14 24° SSE
Cosmos 2100 Rocket 3.9 19:13:15 10° S 19:19:34 88° E 19:25:58 10° N
Cosmos 1459 Rocket 4.4 19:24:21 49° NNE 19:24:21 49° NNE 19:28:42 10° N
BREEZE-M R/B 3.6 19:19:27 10° WNW 19:22:08 48° WSW 19:22:08 48° WSW
Orbus 7S? 4.5 19:16:00 10° NW 19:22:28 55° W 19:22:28 55° W
NOSS 3-1 (A) 3.6 19:19:09 10° SW 19:24:28 63° NW 19:25:17 57° N
CSL-04 Rocket 4.5 19:29:57 39° SW 19:31:25 49° W 19:36:49 10° NNW
Cosmos 407 Rocket 4.3 19:29:37 10° NNW 19:33:40 50° NW 19:33:40 50° NW
Cosmos 2173 Rocket 4.2 19:36:02 64° NNW 19:36:02 64° NNW 19:41:25 10° N
CENTAUR R/B 4.0 19:39:28 10° NW 19:46:12 35° NNE 19:46:12 35° NNE
Cosmos 1844 Rocket 4.0 19:41:38 10° NW 19:46:37 34° WSW 19:47:06 33° WSW
Cosmos 2278 Rocket 4.1 20:00:45 10° NNW 20:02:52 23° NNW 20:02:52 23° NNW
BREEZE M DEB (TANK) 4.4 19:48:05 10° W 20:09:16 74° N 20:09:16 74° N
Cosmos 2360 Rocket 4.4 20:32:57 10° W 20:36:17 21° WNW 20:36:17 21° WNW
